PDT,Max TemperatureF,Mean TemperatureF,Min TemperatureF,Max Dew PointF,MeanDew PointF,Min DewpointF,Max Humidity, Mean Humidity, Min Humidity, Max Sea Level PressureIn, Mean Sea Level PressureIn, Min Sea Level PressureIn, Max VisibilityMiles, Mean VisibilityMiles, Min VisibilityMiles, Max Wind SpeedMPH, Mean Wind SpeedMPH, Max Gust SpeedMPH,PrecipitationIn, CloudCover, Events, WindDirDegrees
2013-7-1,81,67,53,57,54,51,100,70,39,29.91,29.86,29.83,10,7,0,14,4,17,0.00,2,Fog,183
2013-7-2,80,68,56,56,55,54,100,71,42,29.98,29.93,29.88,10,5,1,15,5,21,0.00,6,,198
2013-7-3,79,68,56,57,56,55,100,73,45,29.96,29.89,29.82,10,5,0,15,4,16,0.00,5,Fog,196
2013-7-4,77,67,57,56,55,54,93,72,50,29.83,29.81,29.78,10,6,1,13,5,16,0.00,4,,184
2013-7-5,69,62,55,54,52,51,93,76,58,29.86,29.83,29.80,10,8,2,31,6,113,0.00,5,,126
2013-7-6,67,61,54,54,51,50,93,76,58,29.87,29.84,29.82,10,9,3,14,5,18,0.00,7,,186
2013-7-7,67,61,54,52,51,50,93,75,56,29.91,29.87,29.84,10,10,8,15,6,20,0.00,6,,224
2013-7-8,69,62,55,54,52,51,93,76,58,30.01,29.96,29.91,10,10,10,13,4,17,0.00,5,,225
2013-7-9,75,64,52,54,53,50,93,71,49,30.04,30.01,29.99,10,6,0,12,4,15,0.00,6,Fog,172
2013-7-10,68,61,54,54,53,52,100,80,59,30.02,29.99,29.96,10,8,2,13,5,16,0.00,6,,199
2013-7-11,66,60,54,53,52,51,93,76,58,29.99,29.97,29.96,10,10,9,13,5,17,0.00,7,,195
2013-7-12,69,61,53,52,51,50,93,76,58,29.98,29.96,29.94,10,10,8,14,4,17,0.00,5,,185
2013-7-13,69,61,52,53,52,50,93,74,55,30.01,29.98,29.95,10,7,2,12,4,21,0.00,5,,177
2013-7-14,68,60,52,53,51,48,96,77,58,30.04,30.00,29.96,10,10,7,12,4,17,0.00,6,,176
2013-7-15,67,60,53,53,52,50,93,77,60,29.97,29.94,29.90,10,9,4,15,5,43,T,7,Rain,215
2013-7-16,68,62,55,55,53,51,93,74,55,30.05,29.98,29.92,10,9,4,14,6,21,0.01,6,Rain,203
2013-7-17,72,63,54,54,53,52,93,73,53,30.10,30.08,30.05,10,10,10,12,5,26,0.00,4,,156
2013-7-18,67,61,54,55,53,52,100,82,63,30.09,30.05,30.00,10,6,1,13,4,36,0.00,6,,131
2013-7-19,68,61,53,53,52,51,93,78,63,29.99,29.96,29.89,10,5,1,12,4,20,0.00,7,,116
2013-7-20,64,59,53,54,52,51,93,80,67,29.91,29.87,29.84,10,7,2,12,4,22,0.00,7,,183
2013-7-21,69,61,52,54,52,50,93,76,58,29.93,29.87,29.83,10,9,4,13,4,16,0.00,5,,209
2013-7-22,71,64,56,56,55,53,93,77,61,29.99,29.96,29.91,10,10,4,13,5,18,0.00,4,,216
2013-7-23,73,65,57,57,55,55,93,75,57,30.04,30.00,29.98,10,10,4,13,5,16,0.00,2,,216
2013-7-24,71,63,55,55,54,53,100,79,57,30.01,29.99,29.96,10,6,1,12,4,21,0.00,6,,190
2013-7-25,68,61,54,54,53,53,100,82,63,30.07,30.01,29.97,10,7,0,12,4,28,0.00,6,Fog,186
2013-7-26,67,61,55,54,54,53,93,78,63,30.14,30.09,30.06,10,8,2,12,4,23,0.00,7,,211
2013-7-27,67,61,55,54,54,53,93,78,63,30.07,30.00,29.93,10,7,2,13,5,20,0.01,7,,211
2013-7-28,65,60,54,54,53,51,100,84,67,29.94,29.91,29.89,10,8,2,12,5,16,T,8,Rain,219
2013-7-29,67,62,56,54,52,50,86,75,63,30.06,30.00,29.92,10,10,9,16,7,20,0.00,7,,234
2013-7-30,69,63,56,52,51,50,80,67,53,30.13,30.10,30.06,10,10,8,15,6,21,0.00,5,,233
2013-7-31,67,60,53,53,51,50,89,76,63,30.13,30.10,30.06,10,10,10,13,4,24,0.00,4,,169